CMS-02 (GSAT-24)

Last updated on Tue Sep 22 2026 00:03:15 GMT+0000 (Coordinated Universal Time)

1 52903U 22067A 26264.62897132 -.00000169 00000+0 00000+0 0 9999 2 52903 0.0185 162.4051 0002187 100.3329 47.2128 1.00271568 15572
UTC large
Height (km)
Speed (km/s)
/
Latitude / Longitude
Inclination (degrees)
Orbital Period (minutes)
Azimuth
Elevation
Range (km)
Doppler Factor

Next 0 passes for location: London (51.5072 / 0.1276)

No passes found over London.
CMS-02 (GSAT-24)